Date String (YYYY-MM-DD hh:mm:ss) UTC,Instrument flags,absolute air pressure of the measurement (hPa),sample flow rate (lpm),inlet stack bypass flow (lpm),air temperature of the measurement (°C),ambient temperature measured by the external sensor (°C),aerosol sample conditioner tube jacket temperature (°C),OPC LED temperature (°C),internal box temperature (°C),relative humidity of the measurement (%),span deviation,mass concentration of particles derived from Lorenz-Mie calculation of OPC scattering (μg/m³),mass concentration of particles derived from Lorenz-Mie calculation of OPC scattering (μg/m³),mass concentration of particles derived from Lorenz-Mie calculation of OPC scattering (μg/m³)
DateTimeUTC,F1_M11,P_M11,Q1_M11,Q2_M11,T1_M11,T2_M11,T3_M11,T4_M11,T5_M11,U1_M11,ZSPAN_M11,X0_M11,X2_M11,X1_M11
2023-06-19 16:00:00,SystemResetWarning,0825.5,4.98,000.00,029.5,027.4,000.0,037.9,031.2,13.9,0000.0,0014.11,0004.51,0003.55
2023-06-19 16:01:00,SystemResetWarning,0825.5,5.00,000.00,029.5,025.5,000.0,037.9,031.0,13.0,0000.0,0014.24,0004.51,0003.54
2023-06-19 16:02:00,SystemResetWarning,0825.5,5.01,000.00,029.4,024.9,000.0,037.8,031.0,12.5,0000.0,0014.40,0004.52,0003.54
2023-06-19 16:03:00,SystemResetWarning,0825.5,5.01,000.00,029.4,025.4,000.0,037.8,030.8,13.1,0000.0,0014.11,0004.47,0003.54
2023-06-19 16:04:00,SystemResetWarning,0825.5,5.00,000.00,029.3,025.8,000.0,037.8,030.7,13.1,0000.0,0013.08,0004.42,0003.54
2023-06-19 16:05:00,SystemResetWarning,0825.5,5.00,000.00,029.3,026.2,000.0,037.8,030.7,13.2,0000.0,0012.93,0004.40,0003.54
2023-06-19 16:06:00,SystemResetWarning,0825.5,4.99,000.00,029.3,026.6,000.0,037.8,030.8,13.9,0000.0,0012.57,0004.40,0003.54
2023-06-19 16:07:00,SystemResetWarning,0825.5,4.99,000.00,029.3,026.9,000.0,037.9,030.8,13.9,0000.0,0012.08,0004.39,0003.53
2023-06-19 16:08:00,SystemResetWarning,0825.5,5.00,000.00,029.3,027.2,000.0,037.9,030.9,14.7,0000.0,0012.06,0004.40,0003.53
2023-06-19 16:09:00,SystemResetWarning,0825.5,5.00,000.00,029.4,027.5,000.0,037.9,030.9,14.3,0000.0,0011.71,0004.42,0003.55
2023-06-19 16:10:00,SystemResetWarning,0825.5,5.01,000.00,029.4,027.7,000.0,037.9,031.0,14.3,0000.0,0011.33,0004.43,0003.55
2023-06-19 16:11:00,SystemResetWarning,0825.5,5.00,000.00,029.4,027.8,000.0,037.9,031.0,14.1,0000.0,0010.80,0004.37,0003.54
2023-06-19 16:12:00,SystemResetWarning,0825.5,4.98,000.00,029.5,026.9,000.0,037.9,031.1,13.6,0000.0,0010.53,0004.34,0003.55
2023-06-19 16:13:00,SystemResetWarning,0825.4,5.01,000.00,029.4,025.0,000.0,037.8,031.1,14.7,0000.0,0009.87,0004.35,0003.54
2023-06-19 16:14:00,SystemResetWarning,0825.4,5.02,000.00,029.4,025.0,000.0,037.8,031.0,14.4,0000.0,0009.56,0004.38,0003.53
2023-06-19 16:15:00,SystemResetWarning,0825.4,4.99,000.00,029.4,025.5,000.0,037.8,030.7,12.7,0000.0,0009.63,0004.42,0003.54
2023-06-19 16:16:00,SystemResetWarning,0825.4,4.99,000.00,029.3,025.9,000.0,037.8,030.6,13.4,0000.0,0009.74,0004.45,0003.53
2023-06-19 16:17:00,SystemResetWarning,0825.5,5.01,000.00,029.3,026.3,000.0,037.8,030.7,13.5,0000.0,0010.52,0004.45,0003.53
2023-06-19 16:18:00,SystemResetWarning,0825.5,5.00,000.00,029.3,026.7,000.0,037.8,030.7,13.6,0000.0,0010.95,0004.44,0003.51
2023-06-19 16:19:00,SystemResetWarning,0825.5,5.01,000.00,029.3,027.0,000.0,037.8,030.8,14.5,0000.0,0010.80,0004.42,0003.51
2023-06-19 16:20:00,SystemResetWarning,0825.5,5.00,000.00,029.3,027.3,000.0,037.8,030.9,15.6,0000.0,0011.16,0004.37,0003.51
2023-06-19 16:21:00,SystemResetWarning,0825.5,4.99,000.00,029.4,027.5,000.0,037.9,030.9,27.6,0000.0,0011.88,0004.36,0003.51
2023-06-19 16:22:00,SystemResetWarning,0825.4,5.01,000.00,029.4,027.7,000.0,037.9,031.0,35.2,0000.0,0012.09,0004.40,0003.51
2023-06-19 16:23:00,SystemResetWarning,0825.4,5.01,000.00,029.7,027.2,000.0,037.9,031.2,36.1,0000.0,0012.68,0004.51,0003.56
2023-06-19 16:24:00,SystemResetWarning,0825.4,5.01,000.00,030.0,025.3,000.0,037.8,031.2,30.3,0000.0,0014.15,0004.60,0003.65
2023-06-19 16:25:00,SystemResetWarning,0825.4,5.00,000.00,030.2,024.8,000.0,037.8,031.2,28.8,0000.0,0016.00,0004.67,0003.73
2023-06-19 16:26:00,SystemResetWarning,0825.4,4.98,000.00,030.3,025.3,000.0,037.8,031.0,34.5,0000.0,0017.17,0004.74,0003.78
2023-06-19 16:27:00,SystemResetWarning,0825.4,5.02,000.00,030.3,025.7,000.0,037.9,030.8,32.6,0000.0,0017.75,0004.79,0003.84
2023-06-19 16:28:00,SystemResetWarning,0825.4,5.00,000.00,030.3,026.1,000.0,038.0,030.9,31.8,0000.0,0018.71,0004.89,0003.93
2023-06-19 16:29:00,SystemResetWarning,0825.4,5.00,000.00,030.4,026.5,000.0,038.1,030.9,30.0,0000.0,0018.71,0004.99,0004.02
2023-06-19 16:30:00,SystemResetWarning,0825.4,4.99,000.00,030.4,026.9,000.0,038.2,031.0,28.6,0000.0,0019.01,0005.07,0004.10
2023-06-19 16:31:00,SystemResetWarning,0825.4,5.01,000.00,030.4,027.2,000.0,038.3,031.0,23.6,0000.0,0018.95,0005.10,0004.15
2023-06-19 16:32:00,SystemResetWarning,0825.4,5.01,000.00,030.4,027.5,000.0,038.3,031.1,21.4,0000.0,0018.12,0005.16,0004.19
2023-06-19 16:33:00,SystemResetWarning,0825.4,4.99,000.00,030.5,027.7,000.0,038.4,031.2,26.8,0000.0,0017.84,0005.16,0004.22
2023-06-19 16:34:00,SystemResetWarning,0825.4,4.98,000.00,030.5,026.4,000.0,038.4,031.3,24.9,0000.0,0017.77,0005.14,0004.22
2023-06-19 16:35:00,SystemResetWarning,0825.4,5.02,000.00,030.5,024.8,000.0,038.4,031.2,27.3,0000.0,0016.72,0005.08,0004.18
2023-06-19 16:36:00,SystemResetWarning,0825.4,5.00,000.00,030.5,024.8,000.0,038.3,031.1,23.8,0000.0,0015.90,0005.01,0004.12
2023-06-19 16:37:00,SystemResetWarning,0825.4,5.00,000.00,030.4,025.3,000.0,038.4,030.9,19.9,0000.0,0014.97,0005.02,0004.11
2023-06-19 16:38:00,SystemResetWarning,0825.4,5.00,000.00,030.3,025.7,000.0,038.4,030.8,22.4,0000.0,0014.89,0005.00,0004.09
2023-06-19 16:39:00,SystemResetWarning,0825.3,4.99,000.00,030.2,026.2,000.0,038.4,030.8,18.8,0000.0,0014.11,0004.89,0004.01
2023-06-19 16:40:00,SystemResetWarning,0825.3,5.00,000.00,030.2,026.6,000.0,038.4,030.9,21.6,0000.0,0013.28,0004.83,0003.96
2023-06-19 16:41:00,SystemResetWarning,0825.4,5.01,000.00,030.2,027.0,000.0,038.4,031.0,20.7,0000.0,0012.67,0004.75,0003.89
2023-06-19 16:42:00,SystemResetWarning,0825.4,4.98,000.00,030.2,027.3,000.0,038.5,031.0,33.9,0000.0,0012.58,0004.72,0003.84
2023-06-19 16:43:00,SystemResetWarning,0825.4,5.00,000.00,030.2,027.5,000.0,038.5,031.1,35.2,0000.0,0012.79,0004.70,0003.81
2023-06-19 16:44:00,SystemResetWarning,0825.3,5.02,000.00,030.4,027.5,000.0,038.5,031.3,34.4,0000.0,0014.42,0004.79,0003.85
2023-06-19 16:45:00,SystemResetWarning,0825.3,4.97,000.00,030.5,025.9,000.0,038.4,031.4,34.5,0000.0,0015.01,0004.91,0003.93
2023-06-19 16:46:00,SystemResetWarning,0825.3,5.01,000.00,030.6,024.7,000.0,038.4,031.3,35.7,0000.0,0014.79,0004.96,0003.98
2023-06-19 16:47:00,SystemResetWarning,0825.3,5.02,000.00,030.8,025.0,000.0,038.4,031.3,35.9,0000.0,0014.46,0005.05,0004.02
2023-06-19 16:48:00,SystemResetWarning,0825.3,4.99,000.00,031.0,025.4,000.0,038.4,031.2,36.0,0000.0,0015.32,0005.14,0004.07
2023-06-19 16:49:00,SystemResetWarning,0825.3,4.99,000.00,031.3,025.8,000.0,038.5,031.2,35.3,0000.0,0015.85,0005.24,0004.14
2023-06-19 16:50:00,SystemResetWarning,0825.4,5.02,000.00,031.5,026.3,000.0,038.6,031.4,34.0,0000.0,0015.62,0005.38,0004.21
2023-06-19 16:51:00,SystemResetWarning,0825.4,4.99,000.00,031.7,026.7,000.0,038.7,031.4,33.4,0000.0,0017.07,0005.49,0004.30
2023-06-19 16:52:00,SystemResetWarning,0825.4,5.00,000.00,031.8,027.1,000.0,038.8,031.4,32.2,0000.0,0017.89,0005.63,0004.39
2023-06-19 16:53:00,SystemResetWarning,0825.4,5.01,000.00,031.9,027.4,000.0,038.9,031.5,31.2,0000.0,0018.14,0005.73,0004.48
2023-06-19 16:54:00,SystemResetWarning,0825.3,4.99,000.00,031.9,027.5,000.0,039.1,031.6,32.7,0000.0,0018.36,0005.77,0004.56
2023-06-19 16:55:00,SystemResetWarning,0825.4,4.99,000.00,032.0,026.1,000.0,039.1,031.5,31.9,0000.0,0017.53,0005.80,0004.59
2023-06-19 16:56:00,SystemResetWarning,0825.4,5.01,000.00,032.0,024.8,000.0,039.2,031.4,31.7,0000.0,0016.95,0005.81,0004.60
2023-06-19 16:57:00,SystemResetWarning,0825.4,5.00,000.00,032.0,024.8,000.0,039.2,031.4,32.6,0000.0,0017.09,0005.84,0004.62
2023-06-19 16:58:00,SystemResetWarning,0825.3,5.00,000.00,031.8,025.1,000.0,039.3,031.1,33.7,0000.0,0017.86,0005.87,0004.66
2023-06-19 16:59:00,SystemResetWarning,0825.3,5.00,000.00,031.7,025.6,000.0,039.3,031.0,33.1,0000.0,0017.98,0005.86,0004.69
